Location: Bjelajci
(45.0103°N, 16.1758°E)
Time: 09:37:13
(UTC+00:00)

Cosmos 1666 - Pass Details

Date: 14 July 2020
Orbit: 497 x 521 km, 82.5° (Epoch: 08 August)

Event Time Altitude Azimuth Distance (km) Brightness Sun altitude
Exits shadow 01:13:07 34° 182° (S) 846 3.3 -16.9°
Maximum altitude 01:14:40 83° 98° (E) 516 2.6 -16.8°
Drops below altitude 10° 01:18:26 10° 10° (N) 1,723 6.4 -16.4°
Sets 01:20:34 0° 10° (N) 2,609 7.5 -16.2°
